This is the latest recevied weather packets stored in our database for station/object KG4ZVW. If no packets are shown the sender has not sent any weather packets the latest 10 day(s).
| Time | Temp. | Humidity | Pressure | Rain* | Wind** | Luminosity | Snow |
|---|---|---|---|---|---|---|---|
| 1777765399 | 23.33° C | 84% | 1009.2 hPa | 0.76 mm | - | 0 W/m² | - |
| 1777765112 | 23.33° C | 84% | 1009.4 hPa | 0.76 mm | - | 0 W/m² | - |
| 1777764808 | 23.33° C | 84% | 1009.4 hPa | 0.51 mm | - | 5 W/m² | - |
| 1777764503 | 23.33° C | 84% | 1009.4 hPa | 0.51 mm | - | 5 W/m² | - |
| 1777764198 | 23.33° C | 83% | 1009.2 hPa | 0.51 mm | - | 5 W/m² | - |
| 1777763914 | 23.33° C | 83% | 1009.2 hPa | 0.51 mm | - | 0 W/m² | - |
| 1777763609 | 22.78° C | 83% | 1009.2 hPa | 0.25 mm | - | 5 W/m² | - |
| 1777763306 | 22.78° C | 82% | 1009.8 hPa | 0.25 mm | - | 5 W/m² | - |
| 1777763005 | 23.33° C | 81% | 1009.8 hPa | 0.25 mm | - | 7 W/m² | - |
| 1777762700 | 23.33° C | 80% | 1009.8 hPa | 0 mm | - | 9 W/m² | - |
| 1777762395 | 23.89° C | 79% | 1009.6 hPa | 0 mm | - | 16 W/m² | - |
| 1777762111 | 24.44° C | 78% | 1009.6 hPa | 0 mm | - | 19 W/m² | - |
| 1777761807 | 23.89° C | 79% | 1009.6 hPa | 0 mm | - | 23 W/m² | - |
| 1777761499 | 23.89° C | 78% | 1009.4 hPa | 0 mm | - | 26 W/m² | - |
| 1777761194 | 23.89° C | 77% | 1009.4 hPa | 0 mm | - | 25 W/m² | - |
| 1777760910 | 23.89° C | 77% | 1009.4 hPa | 0 mm | - | 30 W/m² | - |
| 1777760608 | 23.89° C | 77% | 1009.4 hPa | 0 mm | - | 37 W/m² | - |
| 1777760305 | 23.89° C | 78% | 1009.4 hPa | 0 mm | - | 47 W/m² | - |
| 1777760003 | 23.33° C | 81% | 1009.4 hPa | 0 mm | - | 58 W/m² | - |
| 1777759700 | 22.78° C | 81% | 1009.4 hPa | 0 mm | - | 63 W/m² | - |
| 1777759396 | 22.78° C | 82% | 1009.4 hPa | 0 mm | - | 60 W/m² | - |
| 1777759095 | 22.78° C | 82% | 1009.4 hPa | 0 mm | - | 60 W/m² | - |
| 1777758810 | 22.78° C | 82% | 1008.8 hPa | 0 mm | - | 62 W/m² | - |
| 1777758507 | 22.78° C | 82% | 1008.8 hPa | 0 mm | - | 62 W/m² | - |
| 1777758202 | 22.78° C | 81% | 1008.8 hPa | 0 mm | - | 58 W/m² | - |
* Rain latest hour (hover to see other rain measurements)
** Current wind speed in m/s (hover to see current wind gust speed)